Temperature
20 20 20 21 23 23 23 22 22 20 19 17 17 17 18 19 19 18 14 13 12 11 10 9 9 9 9 9 9 8 8 7 7 6 6 6 6 5 5 5 5 5 5 5 5 5 5 5 5
20 20 20 22 23 23 23 23 21 21 18 15 14 15 17 18 14 14 14 13 12 11 10 9 9 9 9 9 9 8 8 8 7 7 6 6 6 5 5 5 5 5 5 5 5 5 5 5 5
20 21 21 24 23 23 23 22 22 17 15 15 15 15 17 17 13 14 15 14 12 10 9 9 9 9 9 9 9 8 8 8 8 7 7 6 6 6 5 5 5 5 4 4 5 5 5 5 5
20 21 22 24 23 23 23 22 19 16 14 14 16 16 14 14 14 15 15 14 12 10 9 9 9 9 9 9 9 8 8 8 8 8 7 7 6 6 6 5 5 5 5 4 5 5 5 5 5
20 22 23 23 23 23 22 19 17 18 17 16 15 18 16 15 16 16 15 14 12 11 9 9 9 9 9 9 9 9 8 8 8 8 8 7 7 6 6 6 5 5 5 5 5 5 5 5 6
21 23 23 22 23 23 21 18 17 18 18 16 14 17 17 15 16 15 15 13 12 11 10 9 9 9 9 9 9 8 8 8 8 8 7 7 7 6 6 6 5 5 5 5 5 5 5 5 5
22 23 22 22 23 23 22 17 17 19 18 16 15 17 16 15 15 15 14 12 11 10 10 9 8 9 9 9 8 8 8 8 8 8 7 7 6 6 6 5 5 5 5 5 5 5 5 5 5
20 23 22 22 22 23 21 16 16 17 18 16 14 17 18 14 15 14 12 11 10 10 10 9 9 8 8 8 8 8 8 8 8 8 7 7 6 6 5 5 5 5 5 5 5 5 5 5 5
19 22 22 22 22 22 19 16 15 14 15 13 13 15 14 15 14 13 12 11 11 10 10 9 9 9 8 8 8 8 8 8 8 7 7 6 6 6 5 5 5 5 5 5 5 5 5 5 4
20 21 22 22 21 21 18 17 16 14 15 15 13 13 15 15 14 14 14 13 13 12 11 10 9 9 8 8 8 8 7 7 7 7 7 6 6 6 5 5 5 5 5 5 5 5 4 4 4
20 21 21 19 17 17 17 16 15 16 18 18 17 15 16 14 14 14 14 14 14 13 11 11 10 9 8 8 8 8 8 7 7 7 7 6 6 6 5 5 5 5 5 4 4 4 4 4 3
19 19 17 17 14 15 16 16 15 15 18 18 17 16 16 15 15 15 15 14 13 13 12 12 10 9 9 8 8 8 8 7 7 7 6 6 6 6 5 5 5 5 4 4 4 4 3 3 3
19 19 16 15 14 14 14 15 16 16 16 15 15 15 16 16 16 16 15 14 13 13 13 12 11 10 9 8 8 8 8 7 7 7 6 6 6 6 6 5 5 4 4 4 3 3 3 3 2
18 17 16 15 14 14 14 16 14 16 17 15 14 14 15 15 16 15 15 14 14 14 13 12 11 10 9 9 8 8 8 7 7 7 6 6 6 6 5 5 5 4 4 3 3 3 2 2 2
15 17 19 16 15 15 14 17 17 18 16 16 16 16 15 16 15 15 16 15 15 15 14 13 12 11 10 9 8 8 8 7 7 7 6 6 6 6 5 5 5 4 4 3 3 2 2 2 1
17 19 20 19 16 14 15 20 23 20 17 17 18 17 15 16 17 17 16 16 15 14 14 13 12 11 10 9 8 8 8 7 7 7 6 6 6 5 5 5 4 4 3 3 2 2 2 1 1
20 21 21 20 17 15 16 19 22 20 17 17 18 18 17 16 16 17 17 16 15 15 14 13 13 12 11 10 9 8 8 7 7 7 6 6 6 5 5 5 4 4 3 3 2 2 1 1 0
20 20 20 20 19 16 16 18 21 21 19 18 18 18 18 16 16 17 17 17 16 15 14 13 13 12 11 10 9 8 8 8 7 7 7 6 6 5 5 5 4 3 3 3 2 1 1 0 -0
19 18 19 20 19 15 17 19 20 21 20 19 18 18 17 17 16 15 15 16 16 15 15 14 13 12 11 10 10 9 9 8 8 7 7 7 6 6 5 5 4 4 3 3 2 1 1 -0 -1
17 18 19 20 16 15 17 17 20 20 19 18 18 17 17 16 15 14 14 15 16 16 15 15 14 13 12 12 11 11 10 9 8 8 8 7 6 6 5 5 4 4 3 2 2 1 1 -0 -2
17 18 19 18 18 16 15 19 22 22 20 18 17 16 16 15 15 14 13 15 16 16 16 16 15 14 14 13 12 10 9 9 8 9 9 8 7 6 5 5 4 4 3 2 2 1 0 -0 -2
18 17 16 15 16 18 16 18 21 22 21 22 21 19 17 15 15 14 14 15 17 17 16 16 16 15 14 13 12 12 11 11 11 11 10 9 8 7 6 5 5 4 3 3 2 1 1 -0 -2
17 15 15 15 16 16 16 16 20 22 22 22 21 20 18 16 15 15 16 17 17 17 17 16 16 15 15 14 13 13 12 12 11 10 10 9 9 8 7 6 5 4 3 3 2 1 1 -0 -1
15 15 14 14 16 17 17 17 20 23 21 21 21 19 18 16 16 16 17 17 18 17 17 17 16 16 15 15 14 14 13 13 11 10 10 10 9 9 8 7 5 4 4 3 2 1 1 -0 -1
15 17 19 19 18 19 15 15 19 22 20 19 18 18 16 16 16 16 16 17 17 17 17 17 17 17 16 15 15 15 14 13 12 11 10 10 9 10 9 7 6 5 4 3 2 1 1 -0 -1
16 17 18 18 18 19 16 16 20 21 20 18 17 16 16 16 16 15 15 16 17 17 17 17 17 17 16 16 16 15 14 13 13 12 10 10 10 9 9 7 6 5 4 3 2 1 1 -0 -1
16 16 16 17 17 16 17 17 18 20 21 20 19 18 17 16 15 15 15 15 16 16 16 16 16 16 16 16 15 15 14 14 13 12 11 9 9 8 7 6 5 4 3 2 2 1 0 -0 -1
15 16 15 16 16 17 18 17 19 21 22 21 19 18 16 15 14 14 14 14 15 15 16 16 16 15 15 15 15 14 14 14 13 12 11 11 10 8 7 5 4 3 2 2 1 1 -0 -1 -1
14 14 15 16 16 16 17 18 19 20 20 18 17 16 15 14 13 13 13 14 14 14 15 15 15 14 14 14 14 14 13 13 13 12 12 11 9 8 7 5 4 2 1 1 1 0 -0 -1 -1
15 16 16 16 17 16 16 18 20 19 18 17 16 15 14 12 12 12 12 13 13 13 14 14 14 14 14 13 13 13 13 13 12 12 11 10 9 8 6 5 3 2 1 0 0 -0 -1 -1 -1
Wind_Speed
2 1 2 3 4 4 3 1 1 4 4 4 4 4 4 4 3 1 5 12 15 18 17 18 16 14 12 11 10 9 9 10 10 11 11 12 13 13 14 15 16 17 17 18 19 20 20 21 21
1 2 3 3 5 6 3 1 3 4 3 6 5 5 5 5 1 4 9 13 17 18 17 17 17 15 13 11 10 10 9 9 10 10 11 11 12 12 13 14 14 15 16 17 17 18 19 19 20
1 2 2 4 7 7 5 1 2 4 6 7 7 5 5 3 5 6 11 18 18 17 16 17 17 15 14 12 11 10 9 9 9 9 10 10 10 11 12 12 13 14 14 15 16 16 17 18 19
2 2 3 7 8 5 4 1 4 7 7 7 6 5 5 2 4 6 15 21 18 18 17 17 18 16 14 13 11 10 10 9 9 9 9 9 9 10 10 11 11 12 12 13 14 15 16 17 17
2 3 7 10 11 5 3 2 6 9 7 9 9 6 5 6 5 10 17 20 18 18 17 17 18 17 15 14 12 11 10 10 9 8 8 8 8 8 9 9 10 10 11 12 13 14 14 15 16
2 4 10 12 13 7 4 5 7 9 9 8 9 7 4 7 11 14 18 18 18 17 17 16 19 17 16 15 13 12 11 10 10 9 8 7 7 7 7 8 8 8 9 10 11 12 13 14 15
3 5 12 14 14 14 6 7 7 9 11 10 7 6 5 9 12 14 17 18 17 18 17 16 18 18 17 16 15 13 12 11 10 9 8 7 7 6 6 6 6 7 7 8 9 10 11 12 13
2 5 13 14 15 17 5 8 5 8 8 5 7 8 4 9 15 15 16 16 16 17 18 17 16 17 17 17 16 15 14 13 12 11 9 8 7 6 6 5 5 5 5 6 7 8 9 10 11
2 7 14 15 13 12 4 7 5 4 6 6 8 5 3 12 18 17 16 16 16 17 18 18 18 17 17 16 16 16 15 14 13 12 11 9 7 6 5 4 4 4 4 5 6 7 7 6 8
4 9 13 7 7 7 4 7 6 6 10 10 10 11 7 14 19 21 21 22 22 22 21 20 20 19 18 15 15 15 14 15 14 12 12 9 7 6 5 5 4 3 3 3 4 4 4 5 6
5 8 7 5 5 5 6 7 6 9 14 15 14 16 17 17 20 22 23 24 24 23 21 20 21 20 19 16 15 13 13 13 14 13 12 10 8 8 7 6 6 5 3 2 0 1 3 5 6
5 7 6 5 3 5 7 6 8 14 16 8 10 10 19 21 23 24 25 24 22 22 23 22 23 21 21 18 16 16 14 14 13 14 14 12 10 9 8 7 7 6 5 3 2 2 2 4 5
6 5 4 6 6 8 9 12 11 18 18 13 7 12 19 22 24 24 23 21 21 23 23 23 24 23 21 19 17 16 16 15 15 15 16 15 12 11 10 9 8 7 6 5 4 3 3 4 5
3 5 7 7 7 5 9 12 9 18 14 15 17 18 19 22 23 22 23 23 24 24 24 23 24 25 23 20 18 17 17 16 16 16 17 17 14 12 11 10 9 8 8 6 5 4 4 5 6
3 7 9 7 6 4 6 13 12 17 9 14 18 20 21 22 22 24 25 25 25 24 24 24 24 25 24 22 21 18 17 17 17 17 18 19 17 14 13 10 10 9 8 8 6 6 6 6 7
4 5 6 3 5 3 5 16 14 10 12 17 18 19 20 22 24 24 24 23 23 22 23 24 20 23 24 22 21 18 18 18 18 17 18 20 20 17 14 12 11 11 10 9 8 7 6 6 7
5 6 10 8 5 4 7 20 24 12 13 20 21 20 20 20 22 23 23 23 22 22 23 23 24 24 23 23 21 20 18 19 18 18 18 20 21 20 17 14 12 12 11 10 8 7 7 7 7
8 11 13 13 4 7 12 23 29 22 18 23 23 22 20 21 22 21 21 22 21 21 21 22 23 23 22 19 17 16 17 18 19 19 20 21 21 22 19 15 15 14 11 10 9 9 8 7 7
10 12 17 18 7 6 16 25 30 27 19 20 20 20 20 21 19 16 17 19 20 21 22 23 23 23 20 17 17 17 17 15 15 19 22 23 23 23 21 16 16 16 12 12 11 10 10 9 7
8 12 16 13 1 6 16 25 26 20 13 13 15 15 15 15 14 14 14 17 20 22 23 23 24 24 24 19 18 15 16 14 16 18 21 24 25 24 22 21 16 16 13 14 13 12 9 8 8
9 10 12 12 10 6 10 14 11 9 7 8 8 9 10 10 11 11 13 16 18 21 23 21 24 24 24 22 15 13 13 12 14 17 17 23 26 26 25 24 20 17 15 13 15 14 14 10 9
10 5 7 8 9 7 6 8 12 9 11 11 14 12 11 8 6 7 10 14 17 19 18 20 21 22 22 22 20 22 19 19 19 17 16 19 25 27 27 25 24 20 17 16 15 15 13 13 11
5 2 4 5 6 8 4 5 10 8 10 16 16 16 14 11 8 6 8 11 14 15 16 17 19 21 22 23 24 23 22 20 16 16 19 20 21 26 27 26 24 21 18 18 17 16 16 13 13
2 3 2 2 3 4 2 4 8 5 8 12 14 15 15 14 12 9 6 7 10 12 14 16 18 20 21 23 24 25 26 23 21 20 19 18 16 18 24 26 24 22 19 19 18 17 18 15 15
3 5 5 4 3 3 2 6 10 10 8 8 11 13 14 14 14 12 10 7 7 11 14 16 19 20 21 23 24 26 26 25 25 22 20 19 16 17 21 22 22 20 20 20 19 17 17 18 17
2 3 4 6 7 7 3 7 9 11 10 8 7 9 12 16 17 15 14 10 7 8 11 15 18 19 20 22 23 22 23 19 19 22 20 19 17 17 19 22 22 22 22 20 19 16 17 15 17
2 3 2 5 7 7 7 7 12 11 5 5 10 13 17 18 18 16 15 12 10 8 9 12 15 16 18 20 20 20 21 21 20 19 20 18 18 16 19 21 22 22 22 21 19 16 18 16 17
2 2 3 4 5 7 8 8 7 10 14 14 15 18 20 19 17 16 14 13 11 9 8 8 12 14 15 16 17 15 18 20 20 19 21 20 20 19 19 20 22 22 22 21 20 17 17 17 16
5 4 6 5 6 6 9 9 6 13 15 13 15 19 19 17 16 14 14 13 12 10 8 6 8 10 12 13 15 17 17 17 18 19 20 20 19 20 20 20 21 22 22 22 21 20 18 19 18
5 6 7 6 9 8 11 13 9 11 9 11 17 17 14 13 13 13 14 14 13 12 10 8 7 8 10 11 13 15 15 16 17 19 19 19 19 19 20 20 21 22 22 22 22 21 20 19 19
Wind_Direction
175 223 237 234 226 243 281 3 206 174 178 156 158 190 215 228 260 350 125 155 150 154 158 158 156 152 145 138 128 118 106 97 89 84 79 75 69 65 62 59 56 54 52 51 49 47 46 44 43
204 239 223 232 247 254 268 178 210 195 146 149 175 204 223 232 190 124 153 161 158 156 159 159 156 155 151 145 137 127 116 106 97 90 84 79 73 68 65 61 58 55 53 51 49 46 44 43 41
212 260 230 229 247 267 293 206 199 142 155 175 187 217 242 223 172 172 165 161 162 161 161 157 159 159 156 151 145 136 126 116 106 97 91 85 77 71 67 63 59 56 54 51 49 45 43 40 39
238 207 225 244 252 270 294 282 170 167 179 205 205 211 220 209 168 163 156 162 166 164 164 162 164 163 161 158 153 146 137 127 117 108 99 92 84 76 71 66 61 58 54 51 48 45 42 39 36
246 236 238 248 258 264 251 218 186 198 195 198 207 229 217 166 154 154 162 168 170 168 169 168 169 169 167 165 161 154 147 138 129 119 110 100 93 84 77 72 64 59 55 51 48 44 41 37 35
224 248 254 260 268 268 243 202 192 220 214 193 208 234 219 149 164 164 167 172 175 172 173 174 174 175 174 172 169 163 157 150 141 132 122 111 102 93 83 77 69 61 56 51 48 45 41 36 33
273 268 267 274 278 276 261 183 209 224 218 206 203 223 185 175 172 167 170 175 179 179 180 180 181 180 181 179 176 172 167 161 153 144 134 123 112 104 91 83 77 67 59 53 49 45 41 34 30
309 272 268 269 275 281 251 182 228 228 227 192 200 228 215 170 163 166 171 179 184 186 188 186 187 185 184 184 182 179 176 170 163 154 145 136 126 118 108 103 88 76 63 55 51 46 40 33 29
239 261 267 272 275 284 199 202 211 223 221 204 217 237 78 141 156 165 174 185 191 195 195 193 191 187 186 185 183 184 182 178 172 165 158 155 158 153 147 119 106 91 70 57 50 43 35 28 26
221 261 271 281 271 281 229 228 216 210 224 224 223 213 158 159 169 178 186 191 195 198 197 196 196 191 189 187 187 189 186 182 184 178 173 177 178 175 166 141 133 116 95 73 49 35 22 11 9
227 258 275 256 259 267 253 236 222 227 238 232 226 207 181 179 186 193 198 199 200 198 197 199 198 196 194 191 191 189 188 186 190 190 187 186 184 181 187 186 178 179 184 192 174 324 7 6 4
242 251 258 264 241 245 248 245 233 231 248 259 239 207 181 189 195 201 204 205 202 200 200 199 199 199 199 197 196 196 194 193 194 195 194 191 191 195 196 202 199 202 206 215 243 298 335 338 339
241 262 251 253 252 252 256 249 258 253 251 243 226 196 195 200 205 209 209 208 204 204 203 202 200 201 201 202 202 202 202 201 199 196 198 198 197 199 198 202 203 209 211 217 233 257 288 301 308
272 266 265 261 250 248 259 265 254 263 251 234 225 218 212 211 210 209 210 210 208 207 205 202 202 203 202 203 205 205 206 204 203 201 201 202 204 203 200 204 206 210 213 219 231 250 270 281 286
266 282 273 237 233 250 273 269 240 254 238 235 230 228 224 221 216 214 211 210 209 208 205 203 202 203 204 206 208 208 207 204 205 205 204 204 207 206 204 207 208 210 210 215 225 235 252 265 272
250 264 277 202 203 215 256 278 278 266 238 247 245 237 230 226 222 220 217 214 211 208 206 204 201 204 206 207 208 210 209 208 208 207 206 206 208 208 207 210 212 208 207 214 222 231 243 251 261
238 281 297 299 204 216 240 279 287 281 252 259 259 251 240 234 227 223 218 214 211 208 205 204 202 204 205 207 209 212 212 212 212 209 208 207 208 208 209 213 212 207 209 213 219 226 235 248 256
298 300 296 299 275 237 262 277 287 287 265 264 267 262 252 244 237 226 218 214 211 208 206 204 203 206 205 206 210 213 216 216 215 213 212 208 208 208 210 213 213 208 211 213 215 223 226 241 254
287 283 288 296 303 260 276 284 289 295 289 274 271 268 261 254 250 233 217 211 209 207 206 205 204 204 203 203 207 210 214 216 216 217 216 212 210 208 210 212 212 209 213 215 216 220 228 232 236
259 279 290 302 288 266 294 291 290 295 295 291 288 287 280 271 257 235 218 210 209 208 207 206 206 204 204 205 207 211 216 220 220 219 219 216 213 210 210 213 212 210 214 216 216 216 223 228 221
266 269 292 303 313 264 305 298 298 320 328 320 319 311 305 287 271 245 224 218 213 212 210 208 207 206 206 205 205 207 215 222 219 219 219 217 214 212 211 213 213 212 212 214 213 211 217 223 219
285 290 275 289 306 307 338 305 303 334 346 19 20 17 7 350 305 265 237 225 220 219 215 214 212 210 208 204 207 206 209 216 220 219 219 217 216 215 213 213 213 213 212 215 213 212 215 220 227
283 346 274 282 286 289 264 265 292 324 1 11 15 20 19 12 354 314 260 238 229 221 217 216 216 215 211 209 211 213 221 226 227 223 223 220 216 216 215 213 213 213 213 214 212 209 212 215 222
260 261 230 213 243 261 233 261 292 330 352 349 359 10 14 10 3 350 315 260 237 222 216 215 216 218 214 212 214 217 223 226 226 224 223 221 219 216 216 213 213 213 212 213 212 211 212 214 219
238 293 295 279 264 268 143 257 262 285 314 315 324 341 354 359 358 352 341 307 255 229 219 215 216 219 215 215 217 221 225 227 229 228 226 222 221 219 216 212 213 213 212 211 209 210 213 215 218
253 273 302 303 296 300 252 249 266 290 302 297 304 331 348 354 350 342 336 322 293 253 229 221 221 222 217 217 221 224 226 228 232 232 229 227 226 225 219 214 214 213 210 209 208 210 213 215 218
235 224 310 281 279 276 261 264 287 282 281 330 347 353 353 348 343 339 336 332 320 295 255 233 228 227 223 221 222 224 225 227 231 234 233 233 232 228 222 217 215 213 210 208 206 211 212 213 217
285 215 202 248 281 283 271 264 261 290 312 331 342 346 344 343 342 341 339 337 331 320 296 258 239 235 231 226 226 228 228 229 232 233 233 232 232 228 225 220 217 214 211 209 207 211 213 213 216
183 195 223 246 259 277 288 274 255 283 310 328 336 339 339 342 342 343 343 342 338 335 323 292 261 248 240 232 230 230 232 232 232 233 235 234 232 229 226 223 218 215 212 209 208 210 210 213 217
236 238 219 250 267 255 280 283 278 284 310 325 329 336 342 348 348 349 349 349 350 347 338 319 290 266 252 243 237 237 236 235 234 236 237 235 234 230 227 224 220 218 213 209 208 210 210 211 216
Height
1560 1562 1563 1565 1564 1562 1563 1564 1566 1570 1572 1576 1577 1578 1576 1575 1576 1580 1579 1577 1579 1581 1584 1586 1588 1590 1590 1591 1591 1591 1591 1591 1590 1589 1589 1588 1587 1585 1584 1583 1581 1580 1578 1576 1574 1573 1571 1569 1567
1562 1563 1565 1565 1562 1565 1563 1562 1566 1568 1573 1576 1577 1577 1577 1575 1575 1575 1574 1575 1578 1580 1583 1586 1587 1588 1589 1590 1591 1591 1590 1590 1589 1589 1588 1587 1586 1585 1584 1583 1581 1580 1578 1576 1575 1573 1571 1569 1567
1563 1563 1566 1562 1561 1563 1562 1562 1565 1571 1574 1575 1576 1576 1575 1574 1572 1572 1572 1573 1576 1579 1582 1584 1585 1587 1588 1589 1590 1590 1590 1589 1589 1588 1588 1587 1586 1585 1584 1582 1581 1579 1578 1576 1575 1573 1571 1569 1567
1564 1565 1565 1561 1561 1560 1561 1562 1567 1571 1574 1574 1574 1574 1572 1570 1569 1570 1570 1572 1575 1578 1580 1582 1584 1586 1587 1588 1589 1589 1589 1588 1588 1587 1587 1586 1585 1584 1583 1582 1580 1579 1578 1576 1574 1573 1571 1569 1568
1564 1564 1561 1561 1560 1559 1563 1566 1568 1568 1570 1571 1572 1569 1569 1566 1566 1567 1568 1570 1573 1576 1579 1581 1582 1584 1585 1586 1587 1588 1588 1587 1587 1586 1586 1585 1584 1583 1582 1581 1580 1578 1577 1576 1574 1572 1571 1569 1567
1565 1562 1561 1561 1556 1557 1562 1565 1567 1566 1566 1568 1570 1568 1565 1563 1563 1565 1566 1568 1571 1574 1576 1578 1580 1582 1583 1585 1586 1586 1586 1586 1586 1585 1585 1584 1583 1583 1582 1580 1579 1578 1576 1575 1573 1572 1570 1569 1567
1565 1561 1560 1558 1556 1555 1558 1563 1564 1562 1562 1565 1565 1564 1561 1559 1560 1562 1564 1567 1569 1571 1574 1576 1578 1580 1581 1582 1583 1584 1584 1584 1584 1584 1583 1583 1582 1581 1580 1579 1578 1576 1575 1574 1572 1571 1570 1568 1567
1564 1562 1559 1557 1556 1553 1556 1561 1560 1560 1560 1561 1561 1560 1558 1556 1557 1559 1561 1564 1566 1568 1570 1573 1575 1577 1579 1580 1581 1581 1582 1582 1582 1582 1582 1581 1580 1579 1579 1578 1576 1575 1574 1572 1571 1570 1569 1567 1566
1563 1563 1558 1554 1554 1551 1556 1559 1559 1558 1558 1557 1555 1555 1553 1553 1554 1556 1558 1560 1562 1564 1566 1568 1571 1573 1576 1577 1578 1579 1579 1580 1580 1580 1579 1579 1578 1577 1577 1576 1575 1574 1572 1571 1570 1569 1567 1566 1564
1562 1559 1554 1553 1554 1553 1556 1556 1555 1555 1554 1552 1551 1549 1549 1550 1551 1552 1553 1554 1556 1558 1561 1563 1566 1569 1571 1573 1574 1575 1576 1576 1577 1577 1576 1576 1575 1575 1574 1573 1573 1572 1571 1569 1568 1567 1566 1564 1563
1559 1555 1553 1555 1556 1555 1554 1554 1553 1551 1546 1544 1544 1543 1543 1545 1546 1547 1548 1550 1552 1554 1556 1558 1561 1564 1566 1568 1570 1571 1572 1572 1573 1573 1573 1573 1572 1572 1571 1571 1570 1569 1568 1567 1566 1565 1564 1562 1561
1558 1555 1556 1555 1555 1554 1552 1550 1548 1545 1539 1539 1539 1540 1538 1539 1539 1541 1542 1545 1547 1549 1550 1553 1556 1558 1560 1563 1565 1566 1567 1568 1569 1569 1569 1569 1569 1569 1568 1568 1567 1566 1565 1564 1563 1562 1561 1559 1558
1556 1554 1554 1553 1553 1552 1550 1547 1544 1536 1534 1535 1534 1533 1533 1533 1534 1536 1538 1540 1542 1543 1545 1547 1549 1552 1555 1557 1559 1561 1562 1563 1564 1565 1565 1565 1565 1565 1564 1564 1563 1563 1562 1561 1560 1559 1558 1556 1554
1555 1554 1552 1551 1550 1549 1547 1542 1541 1527 1529 1528 1527 1526 1526 1527 1528 1529 1530 1532 1533 1535 1538 1541 1543 1546 1548 1551 1553 1555 1557 1558 1559 1559 1560 1560 1560 1560 1560 1560 1559 1558 1558 1557 1556 1555 1553 1552 1550
1555 1552 1547 1547 1548 1547 1546 1536 1530 1522 1524 1522 1520 1519 1519 1518 1520 1520 1522 1524 1527 1529 1532 1534 1537 1539 1542 1544 1547 1549 1551 1552 1553 1554 1555 1555 1555 1555 1555 1555 1554 1554 1553 1552 1551 1550 1549 1547 1546
1552 1548 1541 1541 1544 1545 1547 1527 1518 1519 1519 1516 1514 1513 1511 1510 1510 1512 1514 1517 1520 1522 1525 1527 1530 1532 1535 1537 1540 1542 1544 1546 1547 1547 1548 1549 1549 1550 1550 1549 1549 1549 1548 1547 1546 1545 1544 1542 1540
1545 1541 1538 1537 1542 1543 1541 1523 1510 1514 1514 1509 1506 1505 1504 1503 1502 1503 1506 1508 1511 1514 1517 1520 1522 1525 1528 1531 1533 1535 1537 1538 1539 1540 1541 1541 1542 1543 1543 1543 1543 1543 1542 1541 1541 1539 1538 1536 1535
1543 1540 1537 1535 1535 1540 1535 1520 1504 1504 1505 1501 1498 1497 1496 1495 1494 1497 1498 1501 1504 1507 1510 1512 1515 1518 1521 1524 1525 1527 1528 1529 1530 1531 1532 1534 1535 1536 1536 1536 1536 1536 1535 1535 1534 1533 1532 1530 1529
1545 1544 1539 1532 1533 1538 1527 1514 1498 1494 1495 1493 1490 1489 1488 1487 1489 1491 1491 1493 1496 1498 1501 1504 1506 1509 1512 1513 1514 1516 1517 1519 1521 1522 1524 1526 1527 1528 1528 1528 1529 1528 1528 1528 1528 1527 1525 1524 1522
1546 1543 1535 1529 1535 1536 1523 1510 1494 1490 1489 1488 1486 1483 1482 1481 1483 1484 1484 1486 1488 1490 1493 1496 1498 1501 1503 1504 1507 1509 1511 1511 1513 1514 1515 1516 1518 1519 1519 1520 1520 1520 1520 1520 1520 1520 1519 1518 1516
1542 1540 1533 1533 1531 1530 1529 1504 1487 1484 1487 1486 1484 1481 1479 1477 1477 1479 1478 1479 1481 1483 1486 1488 1491 1493 1495 1498 1500 1501 1502 1502 1502 1502 1504 1506 1508 1509 1510 1511 1512 1512 1512 1512 1512 1512 1512 1511 1510
1537 1536 1538 1538 1535 1526 1531 1520 1491 1484 1483 1481 1481 1480 1478 1476 1475 1475 1475 1475 1476 1478 1481 1483 1485 1486 1488 1490 1490 1490 1490 1489 1491 1494 1495 1496 1497 1498 1499 1501 1502 1502 1502 1502 1503 1503 1503 1503 1502
1536 1540 1539 1537 1535 1532 1527 1526 1497 1485 1483 1481 1481 1480 1479 1477 1475 1473 1472 1472 1472 1473 1474 1476 1478 1479 1480 1481 1481 1482 1481 1482 1485 1485 1485 1485 1485 1487 1488 1490 1491 1491 1492 1493 1493 1493 1494 1494 1494
1540 1539 1538 1538 1533 1528 1523 1523 1501 1483 1485 1484 1482 1481 1480 1477 1475 1473 1471 1469 1469 1468 1468 1469 1469 1470 1471 1472 1472 1472 1472 1474 1475 1474 1474 1474 1474 1474 1476 1477 1479 1480 1481 1482 1483 1484 1484 1484 1485
1539 1534 1527 1524 1522 1519 1527 1525 1502 1482 1484 1486 1485 1483 1480 1478 1475 1472 1470 1467 1465 1463 1462 1462 1462 1462 1462 1462 1463 1463 1464 1465 1464 1465 1464 1464 1463 1462 1463 1465 1466 1468 1469 1472 1473 1474 1474 1475 1475
1537 1535 1534 1534 1525 1516 1523 1518 1491 1481 1483 1484 1485 1483 1481 1478 1475 1471 1467 1464 1461 1459 1457 1456 1455 1454 1454 1454 1454 1455 1455 1455 1455 1455 1455 1453 1452 1452 1453 1453 1455 1457 1459 1461 1462 1463 1464 1465 1465
1536 1535 1536 1534 1528 1531 1515 1507 1493 1480 1479 1480 1481 1481 1479 1477 1473 1469 1464 1461 1458 1455 1453 1450 1449 1448 1447 1447 1447 1446 1446 1446 1446 1446 1445 1444 1443 1442 1442 1442 1443 1445 1447 1449 1451 1452 1453 1455 1456
1538 1535 1537 1534 1530 1524 1510 1506 1493 1479 1475 1477 1478 1478 1477 1475 1471 1467 1462 1458 1455 1451 1449 1446 1444 1442 1441 1440 1440 1439 1438 1438 1437 1436 1435 1434 1433 1432 1431 1431 1431 1433 1435 1437 1439 1441 1443 1444 1446
1538 1538 1534 1529 1528 1523 1513 1498 1484 1480 1478 1480 1481 1479 1477 1474 1470 1465 1461 1457 1453 1450 1447 1443 1441 1438 1437 1435 1434 1433 1432 1430 1429 1427 1426 1425 1423 1422 1420 1420 1420 1421 1423 1425 1427 1429 1432 1434 1436
1531 1528 1528 1528 1519 1520 1513 1496 1478 1479 1481 1482 1481 1479 1477 1473 1469 1465 1461 1457 1453 1449 1446 1442 1439 1436 1433 1431 1429 1427 1426 1424 1421 1419 1417 1416 1413 1412 1410 1409 1409 1409 1410 1413 1415 1418 1421 1423 1426